User: anonymous   Login
Location: Unspecified
(0.0000°N, 0.0000°E)
Time: 06:01:36
(UTC+00:00)
Language:

Aussat K3 - Orbit

View from above orbital plane
View from above orbital plane
View from above satellite
View from above satellite

Ground track
Ground track

The orbit data is extracted from the following two-line orbital elements,

1 18350U 87078A   21215.28804528 -.00000123  00000-0  00000-0 0  9992
2 18350  14.8197   4.3786 0007520  19.3388 223.8710  0.98907951 28442
Epoch (UTC): 03 August 2021 06:54:47
Eccentricity: 0.0007520
inclination: 14.8197°
perigee height: 36141 km
apogee height: 36205 km
right ascension of ascending node: 4.3786°
argument of perigee: 19.3388°
revolutions per day: 0.98907951
mean anomaly at epoch: 223.8710°
orbit number at epoch: 2844

The dashed part of the orbit path shows where the satellite is in the earth's shadow,  

DLR